English version Home page |
Updated on September 28, 2008 |
|
軌道要素Epoch 2008 Apr. 4.0 TT = JDT 2454560.5 T 2008 Apr. 16.84977 TT MPC q 1.2623592 (2000.0) P Q z -0.0000344 Peri. 180.92705 -0.61862242 -0.36370228 +/-0.0000606 Node 307.78187 +0.72640742 +0.07301737 e 1.0000434 Incl. 61.78490 +0.29939699 -0.92864908
|
星図
|
光度変化m1 = 8.3 + 5 logΔ + 10.0 log r
|
軌道要素はM.P.E.C. 2008-H03に掲載されたものです。
|